FAF55 SOCA-SOOG

Flight info

Callsign FAF55
Flight time 0h 16m
Altitude 5000
Route SOCA SOOG
Aircraft C160/L-V/N

Departure

Time 2026-04-26 20:11
Airport Cayenne – Félix Eboué Airport (SOCA)

Arrival

Time 2026-04-26 20:27
Airport Saint-Georges-de-l'Oyapock Airport (SOOG)
Time Latitude Longitude Altitude Speed Heading
2026-04-26 20:06 4.81642 -52.37491 25 ft 0 kts 57°
2026-04-26 20:08 4.81629 -52.37519 28 ft 8 kts 77°
2026-04-26 20:08 4.81627 -52.37545 25 ft 0 kts 85°
2026-04-26 20:08 4.81627 -52.37548 25 ft 0 kts 88°
2026-04-26 20:08 4.81622 -52.37543 25 ft 0 kts 137°
2026-04-26 20:09 4.81622 -52.37542 26 ft 0 kts 138°
2026-04-26 20:09 4.81620 -52.37541 28 ft 1 kts 142°
2026-04-26 20:10 4.81576 -52.37516 27 ft 15 kts 150°
2026-04-26 20:10 4.81446 -52.37422 28 ft 30 kts 127°
2026-04-26 20:10 4.81560 -52.37088 30 ft 91 kts 65°
2026-04-26 20:10 4.81872 -52.36359 277 ft 130 kts 72°
2026-04-26 20:11 4.81773 -52.35403 681 ft 164 kts 108°
2026-04-26 20:11 4.81220 -52.34194 824 ft 212 kts 117°
2026-04-26 20:11 4.80329 -52.32954 1522 ft 222 kts 126°
2026-04-26 20:12 4.77669 -52.30497 1459 ft 291 kts 139°
2026-04-26 20:12 4.76005 -52.29253 1408 ft 305 kts 140°
2026-04-26 20:12 4.74257 -52.28000 1383 ft 312 kts 141°
2026-04-26 20:12 4.72475 -52.26742 1387 ft 315 kts 141°
2026-04-26 20:13 4.71266 -52.25889 1389 ft 315 kts 141°
2026-04-26 20:13 4.69489 -52.24649 1364 ft 316 kts 141°
2026-04-26 20:13 4.67662 -52.23369 1365 ft 316 kts 142°
2026-04-26 20:13 4.65870 -52.22094 1361 ft 316 kts 141°
2026-04-26 20:14 4.64101 -52.20835 1351 ft 315 kts 142°
2026-04-26 20:14 4.62302 -52.19539 1362 ft 313 kts 142°
2026-04-26 20:14 4.60559 -52.18258 1371 ft 311 kts 142°
2026-04-26 20:14 4.58815 -52.16969 1383 ft 311 kts 141°
2026-04-26 20:15 4.57070 -52.15698 1363 ft 308 kts 142°
2026-04-26 20:15 4.55359 -52.14463 1316 ft 307 kts 141°
2026-04-26 20:15 4.53591 -52.13218 1291 ft 307 kts 142°
2026-04-26 20:15 4.51850 -52.12006 1272 ft 304 kts 142°
2026-04-26 20:16 4.50105 -52.10803 1258 ft 304 kts 141°
2026-04-26 20:16 4.48383 -52.09545 1314 ft 308 kts 140°
2026-04-26 20:16 4.46661 -52.08256 1327 ft 309 kts 141°
2026-04-26 20:16 4.44953 -52.07000 1310 ft 309 kts 141°
2026-04-26 20:17 4.43209 -52.05732 1322 ft 311 kts 141°
2026-04-26 20:17 4.41464 -52.04461 1290 ft 308 kts 141°
2026-04-26 20:17 4.39724 -52.03217 1315 ft 309 kts 141°
2026-04-26 20:17 4.37968 -52.01956 1346 ft 311 kts 141°
2026-04-26 20:18 4.36221 -52.00686 1346 ft 310 kts 141°
2026-04-26 20:18 4.34333 -51.99815 1776 ft 293 kts 184°
2026-04-26 20:18 4.32704 -52.00945 1987 ft 306 kts 245°
2026-04-26 20:18 4.32525 -52.02843 1080 ft 258 kts 272°
2026-04-26 20:19 4.32597 -52.04502 611 ft 224 kts 275°
2026-04-26 20:19 4.32755 -52.05889 577 ft 176 kts 279°
2026-04-26 20:19 4.32861 -52.07239 484 ft 207 kts 276°
2026-04-26 20:19 4.32374 -52.08547 1047 ft 214 kts 212°
2026-04-26 20:20 4.30899 -52.09022 563 ft 256 kts 189°
2026-04-26 20:20 4.30229 -52.09090 386 ft 0 kts 182°
2026-04-26 20:20 4.28665 -52.09086 640 ft 317 kts 176°
2026-04-26 20:20 4.26502 -52.08885 635 ft 308 kts 162°
2026-04-26 20:21 4.24746 -52.07726 755 ft 306 kts 131°
2026-04-26 20:21 4.23349 -52.06107 823 ft 309 kts 128°
2026-04-26 20:21 4.21947 -52.04433 824 ft 312 kts 128°
2026-04-26 20:21 4.20572 -52.02749 778 ft 311 kts 128°
2026-04-26 20:22 4.19236 -52.01058 848 ft 306 kts 127°
2026-04-26 20:22 4.17900 -51.99415 924 ft 303 kts 127°
2026-04-26 20:22 4.16599 -51.97798 955 ft 302 kts 127°
2026-04-26 20:22 4.15262 -51.96139 955 ft 301 kts 129°
2026-04-26 20:23 4.13704 -51.94795 959 ft 302 kts 143°
2026-04-26 20:23 4.11909 -51.93631 978 ft 307 kts 145°
2026-04-26 20:23 4.10164 -51.92556 1034 ft 286 kts 145°
2026-04-26 20:23 4.08418 -51.91486 1049 ft 301 kts 145°
2026-04-26 20:24 4.06600 -51.90394 1052 ft 307 kts 146°
2026-04-26 20:24 4.04753 -51.89283 1057 ft 312 kts 146°
2026-04-26 20:24 4.02870 -51.88165 1058 ft 316 kts 146°
2026-04-26 20:24 4.00971 -51.87041 1056 ft 317 kts 146°
2026-04-26 20:25 3.99078 -51.85902 1040 ft 320 kts 146°
2026-04-26 20:25 3.97856 -51.85158 866 ft 284 kts 146°
2026-04-26 20:25 3.95971 -51.84017 698 ft 200 kts 147°
2026-04-26 20:25 3.94907 -51.83435 671 ft 148 kts 148°
2026-04-26 20:26 3.94086 -51.82981 655 ft 133 kts 139°
2026-04-26 20:26 3.93458 -51.82368 791 ft 121 kts 127°
2026-04-26 20:26 3.92934 -51.81707 784 ft 120 kts 122°
2026-04-26 20:26 3.92422 -51.81003 669 ft 133 kts 120°
2026-04-26 20:27 3.91865 -51.80206 579 ft 148 kts 131°
2026-04-26 20:27 3.90951 -51.80030 275 ft 129 kts 193°
2026-04-26 20:27 3.90105 -51.80297 10 ft 119 kts 192°
2026-04-26 20:27 3.89760 -51.80403 14 ft 14 kts 199°
2026-04-26 20:28 3.89620 -51.80445 17 ft 36 kts 197°
2026-04-26 20:28 3.89467 -51.80481 17 ft 1 kts 186°
2026-04-26 20:28 3.89385 -51.80480 19 ft 14 kts 183°
2026-04-26 20:28 3.89337 -51.80473 20 ft 0 kts 147°
2026-04-26 20:29 3.89329 -51.80468 20 ft 0 kts 148°